Home > Weather > Sault Ste. Marie > Past weeks

Flag for Canada Weather for the Past 2 Weeks in Sault Ste. Marie, Ontario, Canada

Now
-6 °F

Scattered clouds.


Feels Like: -20 °F
Forecast: -15 / 2 °F
Wind: 7 mph from Southwest

Location: Sault Ste Marie

Current Time: Feb 13, 2016 at 12:24:01 PM

Latest Report: Feb 13, 2016 at 12:00 PM


Visibility: 7 mi

Pressure: 30.51 "Hg

Humidity: 54%

Dew point: -18 °F

Location of Sault Ste. MarieLocation

Historic Weather in Sault Ste. Marie — Graph

°F

Sault Ste. Marie Temperature Yesterday

Maximum temperature yesterday: 16 °F (at 12:00 AM)
Minimum temperature yesterday: -13 °F (at 11:00 PM)
Average temperature yesterday: 6 °F

High & Low Weather Summary for the Past Weeks

 TemperatureHumidityPressure
High39 °F (Jan 30, 11:00 PM)100% (Feb 7, 2:04 PM)30.51 "Hg (Feb 7, 2:04 PM)
Low-17 °F (Feb 13, 4:00 AM)42% (Jan 29, 12:00 PM)29.44 "Hg (Feb 3, 2:00 PM)
Average20 °F77%29.91 "Hg
* Reported Jan 29 11:00 AM — Feb 13 11:00 AM, Sault Ste. Marie, Weather by CustomWeather, © 2016

Note: Actual official high and low records may vary slightly from our data, if they occured in-between our weather recording intervals... More about our weather records

Advertising

Sault Ste. Marie Weather History for the Previous 24 Hours

 ConditionsComfort  
Time TempWeatherWind HumidityBarometerVisibility
11:00 AM
Sat, Feb 13
-9 °FSnow flurries. Scattered clouds.3 mph58%30.51 "Hg3 mi
10:00 AM-11 °FSnow flurries. Broken clouds.5 mph63%30.51 "Hg2 mi
9:00 AM-13 °FLight snow. Broken clouds.5 mph63%30.50 "Hg1 mi
8:46 AM-13 °FLight snow. Broken clouds.6 mph63%30.50 "Hg1 mi
8:00 AM-17 °FLight snow. Partly sunny.No wind63%30.50 "Hg1 mi
7:00 AM-15 °FLight snow. Partly cloudy.8 mph57%30.47 "Hg3 mi
6:00 AM-15 °FLight snow. Partly cloudy.7 mph57%30.46 "Hg3 mi
5:00 AM-15 °FLight snow. Partly cloudy.3 mph52%30.45 "Hg8 mi
4:00 AM-17 °FPassing clouds.5 mph57%30.42 "Hg15 mi
3:00 AM-15 °FPartly cloudy.6 mph52%30.41 "Hg15 mi
2:00 AM-13 °FPartly cloudy.13 mph47%30.38 "Hg15 mi
1:00 AM-11 °FPartly cloudy.13 mph48%30.37 "Hg15 mi
12:00 AM-11 °FPartly cloudy.18 mph48%30.36 "Hg15 mi
11:00 PM
Fri, Feb 12
-13 °FPassing clouds.14 mph52%30.34 "Hg15 mi
10:00 PM-11 °FClear.15 mph48%30.32 "Hg15 mi
9:00 PM-9 °FPassing clouds.17 mph53%30.29 "Hg15 mi
8:00 PM-6 °FLight snow. Partly cloudy.16 mph64%30.24 "Hg3 mi
7:47 PM-4 °FLight snow. Overcast.16 mph65%30.23 "Hg3 mi
7:00 PM-2 °FSnow. Mostly cloudy.13 mph71%30.20 "Hg1 mi
6:00 PM0 °FLight snow. Mostly cloudy.17 mph71%30.17 "Hg1 mi
5:00 PM1 °FLight snow. Mostly cloudy.20 mph65%30.13 "Hg1 mi
4:00 PM1 °FLight snow. More clouds than sun.24 mph71%30.10 "Hg1 mi
3:00 PM3 °FLight snow. More clouds than sun.22 mph60%30.08 "Hg1 mi
2:00 PM5 °FLight snow. Broken clouds.24 mph66%30.05 "Hg1 mi
1:00 PM7 °FLight snow. Mostly cloudy.21 mph66%30.03 "Hg1 mi
12:00 PM7 °FLight snow. More clouds than sun.17 mph66%30.01 "Hg2 mi
Weather by CustomWeather, © 2016

See weather overviewHow to use our weather pages